| time (UTC) | temp F | wind direction | speed knots | gust knots | rain 1hr in | rain 24hr in | rain mn in | humidity % | barometer mb |
| 20260507093552 | 52 | 121 | 0.0 | 0.9 | 0.00 | 0.00 | 0.00 | 40 | 1014.0 |
| 20260507093051 | 52 | 225 | 0.0 | 0.9 | 0.00 | 0.00 | 0.00 | 40 | 1014.0 |
| 20260507092550 | 52 | 217 | 0.0 | 1.7 | 0.00 | 0.00 | 0.00 | 38 | 1014.0 |
| 20260507092048 | 52 | 229 | 0.0 | 4.3 | 0.00 | 0.00 | 0.00 | 39 | 1014.0 |
| 20260507091548 | 51 | 261 | 0.0 | 0.9 | 0.00 | 0.00 | 0.00 | 41 | 1013.9 |
| 20260507091049 | 51 | 103 | 0.0 | 0.0 | 0.00 | 0.00 | 0.00 | 39 | 1013.9 |
| 20260507090549 | 51 | 329 | 0.0 | 0.0 | 0.00 | 0.00 | 0.00 | 39 | 1013.9 |
| 20260507090048 | 51 | 273 | 0.0 | 0.0 | 0.00 | 0.00 | 0.00 | 37 | 1014.0 |
| 20260507085548 | 51 | 263 | 0.0 | 0.0 | 0.00 | 0.00 | 0.00 | 39 | 1014.0 |
| 20260507085046 | 51 | 291 | 0.0 | 0.9 | 0.00 | 0.00 | 0.00 | 41 | 1014.1 |
| 20260507084551 | 51 | 289 | 0.0 | 0.9 | 0.00 | 0.00 | 0.00 | 39 | 1014.1 |
| 20260507084044 | 51 | 300 | 0.0 | 0.0 | 0.00 | 0.00 | 0.00 | 42 | 1014.1 |
| 20260507083544 | 50 | 265 | 0.0 | 0.0 | 0.00 | 0.00 | 0.00 | 43 | 1014.1 |
| 20260507083048 | 50 | 261 | 0.0 | 0.0 | 0.00 | 0.00 | 0.00 | 43 | 1014.1 |
| 20260507082544 | 49 | 209 | 0.0 | 0.0 | 0.00 | 0.00 | 0.00 | 43 | 1014.2 |
| 20260507082042 | 49 | 316 | 0.0 | 0.0 | 0.00 | 0.00 | 0.00 | 44 | 1014.1 |
| 20260507081538 | 48 | 316 | 0.0 | 0.9 | 0.00 | 0.00 | 0.00 | 43 | 1014.1 |
| 20260507081040 | 48 | 355 | 0.0 | 0.0 | 0.00 | 0.00 | 0.00 | 43 | 1014.2 |
| 20260507080535 | 48 | 244 | 0.0 | 0.0 | 0.00 | 0.00 | 0.00 | 45 | 1014.1 |
| 20260507080033 | 48 | 14 | 0.0 | 0.0 | 0.00 | 0.00 | 0.00 | 46 | 1014.1 |
| 20260507075532 | 47 | 17 | 0.0 | 0.0 | 0.00 | 0.00 | 0.00 | 49 | 1014.1 |
| 20260507075033 | 47 | 34 | 0.0 | 0.9 | 0.00 | 0.00 | 0.00 | 48 | 1014.1 |
| 20260507074530 | 46 | 53 | 0.0 | 0.9 | 0.00 | 0.00 | 0.00 | 51 | 1014.1 |
| 20260507074028 | 45 | 245 | 0.0 | 2.6 | 0.00 | 0.00 | 0.00 | 51 | 1014.1 |
| 20260507073527 | 45 | 326 | 0.0 | 2.6 | 0.00 | 0.00 | 0.00 | 50 | 1014.2 |
| 20260507073025 | 45 | 23 | 0.0 | 1.7 | 0.00 | 0.00 | 0.00 | 53 | 1014.2 |
| 20260507072524 | 44 | 36 | 0.0 | 0.9 | 0.00 | 0.00 | 0.00 | 52 | 1014.2 |
| 20260507072022 | 44 | 33 | 0.0 | 0.9 | 0.00 | 0.00 | 0.00 | 53 | 1014.2 |
| 20260507071521 | 44 | 5 | 0.0 | 0.9 | 0.00 | 0.00 | 0.00 | 55 | 1014.2 |
| 20260507071025 | 43 | 15 | 0.0 | 0.9 | 0.00 | 0.00 | 0.00 | 55 | 1014.3 |
| 20260507070518 | 43 | 26 | 0.0 | 1.7 | 0.00 | 0.00 | 0.00 | 56 | 1014.2 |
| 20260507070017 | 42 | 12 | 0.0 | 1.7 | 0.00 | 0.00 | 0.00 | 56 | 1014.3 |
| 20260507065519 | 42 | 5 | 0.0 | 0.0 | 0.00 | 0.00 | 0.00 | 57 | 1014.3 |
| 20260507065014 | 42 | 11 | 0.0 | 0.0 | 0.00 | 0.00 | 0.00 | 59 | 1014.2 |
| 20260507064512 | 41 | 360 | 0.0 | 0.0 | 0.00 | 0.00 | 0.00 | 64 | 1014.2 |
| 20260507064012 | 40 | 360 | 0.0 | 0.0 | 0.00 | 0.00 | 0.00 | 61 | 1014.2 |
| 20260507063508 | 40 | 360 | 0.0 | 0.9 | 0.00 | 0.00 | 0.00 | 67 | 1014.3 |
| 20260507063007 | 39 | 360 | 0.0 | 0.0 | 0.00 | 0.00 | 0.00 | 69 | 1014.3 |
| 20260507062506 | 38 | 360 | 0.0 | 0.0 | 0.00 | 0.00 | 0.00 | 70 | 1014.4 |
| 20260507062004 | 37 | 360 | 0.0 | 0.0 | 0.00 | 0.00 | 0.00 | 71 | 1014.3 |
| 20260507061504 | 36 | 360 | 0.0 | 0.9 | 0.00 | 0.00 | 0.00 | 74 | 1014.3 |
| 20260507061001 | 35 | 360 | 0.0 | 0.9 | 0.00 | 0.00 | 0.00 | 76 | 1014.4 |
| 20260507060501 | 33 | 360 | 0.0 | 0.0 | 0.00 | 0.00 | 0.00 | 77 | 1014.4 |
| 20260507060104 | 32 | 360 | 0.0 | 0.0 | 0.00 | 0.00 | 0.00 | 78 | 1014.3 |
| 20260507055558 | 31 | 360 | 0.0 | 0.0 | 0.00 | 0.00 | 0.00 | 79 | 1014.4 |
| 20260507055057 | 31 | 360 | 0.0 | 0.0 | 0.00 | 0.00 | 0.00 | 79 | 1014.4 |
| 20260507054606 | 30 | 360 | 0.0 | 0.0 | 0.00 | 0.00 | 0.00 | 80 | 1014.3 |
| 20260507054055 | 30 | 360 | 0.0 | 0.0 | 0.00 | 0.00 | 0.00 | 80 | 1014.3 |
| 20260507053555 | 30 | 360 | 0.0 | 0.0 | 0.00 | 0.00 | 0.00 | 80 | 1014.2 |
| 20260507053056 | 30 | 360 | 0.0 | 0.0 | 0.00 | 0.00 | 0.00 | 80 | 1014.2 |
| 20260507052537 | 30 | 360 | 0.0 | 0.0 | 0.00 | 0.00 | 0.00 | 80 | 1014.2 |
| 20260507052036 | 29 | 360 | 0.0 | 0.0 | 0.00 | 0.00 | 0.00 | 81 | 1014.2 |
| 20260507051536 | 29 | 360 | 0.0 | 0.0 | 0.00 | 0.00 | 0.00 | 81 | 1014.1 |
| 20260507051034 | 29 | 360 | 0.0 | 0.0 | 0.00 | 0.00 | 0.00 | 81 | 1014.2 |
| 20260507050534 | 29 | 360 | 0.0 | 0.0 | 0.00 | 0.00 | 0.00 | 81 | 1014.1 |
| 20260507050034 | 29 | 360 | 0.0 | 0.0 | 0.00 | 0.00 | 0.00 | 81 | 1014.1 |
| 20260507045534 | 29 | 360 | 0.0 | 0.0 | 0.00 | 0.00 | 0.00 | 80 | 1014.1 |
| 20260507045033 | 30 | 360 | 0.0 | 0.0 | 0.00 | 0.00 | 0.00 | 80 | 1014.0 |
| 20260507044533 | 30 | 360 | 0.0 | 0.0 | 0.00 | 0.00 | 0.00 | 79 | 1014.0 |
| 20260507044031 | 30 | 360 | 0.0 | 0.0 | 0.00 | 0.00 | 0.00 | 78 | 1013.9 |
| 20260507043530 | 30 | 360 | 0.0 | 0.0 | 0.00 | 0.00 | 0.00 | 77 | 1013.9 |
| 20260507043036 | 31 | 360 | 0.0 | 0.0 | 0.00 | 0.00 | 0.00 | 77 | 1013.8 |
| 20260507042530 | 31 | 360 | 0.0 | 0.0 | 0.00 | 0.00 | 0.00 | 76 | 1013.7 |
| 20260507042028 | 31 | 360 | 0.0 | 0.0 | 0.00 | 0.00 | 0.00 | 77 | 1013.7 |
| 20260507041527 | 30 | 360 | 0.0 | 0.0 | 0.00 | 0.00 | 0.00 | 77 | 1013.7 |
| 20260507041027 | 30 | 360 | 0.0 | 0.0 | 0.00 | 0.00 | 0.00 | 78 | 1013.7 |
| 20260507040526 | 30 | 5 | 0.0 | 0.0 | 0.00 | 0.00 | 0.00 | 79 | 1013.7 |
| 20260507040025 | 29 | 5 | 0.0 | 0.0 | 0.00 | 0.00 | 0.00 | 79 | 1013.6 |
| 20260507035525 | 29 | 5 | 0.0 | 0.0 | 0.00 | 0.00 | 0.00 | 79 | 1013.6 |
| 20260507035024 | 29 | 5 | 0.0 | 0.0 | 0.00 | 0.00 | 0.00 | 79 | 1013.6 |
| 20260507034522 | 29 | 5 | 0.0 | 0.0 | 0.00 | 0.00 | 0.00 | 78 | 1013.5 |
| 20260507034021 | 29 | 5 | 0.0 | 0.0 | 0.00 | 0.00 | 0.00 | 77 | 1013.5 |
| 20260507033520 | 30 | 5 | 0.0 | 0.0 | 0.00 | 0.00 | 0.00 | 76 | 1013.4 |
| 20260507033019 | 30 | 5 | 0.0 | 0.0 | 0.00 | 0.00 | 0.00 | 76 | 1013.4 |
| 20260507032519 | 31 | 5 | 0.0 | 0.0 | 0.00 | 0.00 | 0.00 | 75 | 1013.3 |
| 20260507032020 | 31 | 5 | 0.0 | 0.0 | 0.00 | 0.00 | 0.00 | 74 | 1013.3 |
| 20260507031514 | 32 | 5 | 0.0 | 0.0 | 0.00 | 0.00 | 0.00 | 72 | 1013.3 |
| 20260507031013 | 32 | 5 | 0.0 | 0.0 | 0.00 | 0.00 | 0.00 | 71 | 1013.2 |
| 20260507030512 | 32 | 5 | 0.0 | 0.0 | 0.00 | 0.00 | 0.00 | 71 | 1013.2 |
| 20260507030012 | 33 | 5 | 0.0 | 0.0 | 0.00 | 0.00 | 0.00 | 69 | 1013.2 |
| 20260507025509 | 33 | 5 | 0.0 | 0.0 | 0.00 | 0.00 | 0.00 | 68 | 1013.2 |
| 20260507025010 | 33 | 5 | 0.0 | 0.0 | 0.00 | 0.00 | 0.00 | 68 | 1013.2 |
| 20260507024509 | 33 | 355 | 0.0 | 3.5 | 0.00 | 0.00 | 0.00 | 68 | 1013.1 |
| 20260507024008 | 33 | 5 | 0.0 | 3.5 | 0.00 | 0.00 | 0.00 | 68 | 1013.2 |
| 20260507023509 | 33 | 18 | 0.0 | 0.9 | 0.00 | 0.00 | 0.00 | 69 | 1013.2 |
| 20260507023006 | 33 | 26 | 0.0 | 0.9 | 0.00 | 0.00 | 0.00 | 69 | 1013.1 |
| 20260507022506 | 33 | 16 | 0.0 | 0.0 | 0.00 | 0.00 | 0.00 | 68 | 1013.1 |
| 20260507022004 | 33 | 16 | 0.0 | 0.9 | 0.00 | 0.00 | 0.00 | 67 | 1013.0 |
| 20260507021509 | 34 | 16 | 0.0 | 0.9 | 0.00 | 0.00 | 0.00 | 67 | 1012.9 |
| 20260507021002 | 34 | 20 | 0.0 | 0.9 | 0.00 | 0.00 | 0.00 | 66 | 1013.0 |
| 20260507020501 | 34 | 355 | 0.0 | 1.7 | 0.00 | 0.00 | 0.00 | 65 | 1012.9 |
| 20260507020002 | 35 | 37 | 0.0 | 1.7 | 0.00 | 0.00 | 0.00 | 65 | 1012.9 |
| 20260507015500 | 34 | 15 | 0.0 | 2.6 | 0.00 | 0.00 | 0.00 | 65 | 1012.8 |
| 20260507015100 | 34 | 5 | 0.0 | 2.6 | 0.00 | 0.00 | 0.00 | 65 | 1012.8 |
| 20260507014609 | 34 | 344 | 0.0 | 0.9 | 0.00 | 0.00 | 0.00 | 67 | 1012.8 |
| 20260507014059 | 34 | 344 | 0.0 | 2.6 | 0.00 | 0.00 | 0.00 | 66 | 1012.9 |
| 20260507013558 | 34 | 336 | 0.0 | 2.6 | 0.00 | 0.00 | 0.00 | 66 | 1012.8 |
| 20260507013058 | 34 | 22 | 0.0 | 0.0 | 0.00 | 0.00 | 0.00 | 66 | 1012.8 |
| 20260507012557 | 34 | 339 | 0.0 | 0.0 | 0.00 | 0.00 | 0.00 | 66 | 1012.8 |
| 20260507012056 | 34 | 339 | 0.0 | 0.0 | 0.00 | 0.00 | 0.00 | 65 | 1012.7 |
| 20260507011603 | 35 | 338 | 0.0 | 0.0 | 0.00 | 0.00 | 0.00 | 65 | 1012.6 |
| 20260507011055 | 35 | 343 | 0.0 | 2.6 | 0.00 | 0.00 | 0.00 | 65 | 1012.7 |
| 20260507010555 | 35 | 338 | 0.0 | 2.6 | 0.00 | 0.00 | 0.00 | 64 | 1012.6 |
| 20260507010056 | 36 | 335 | 0.0 | 2.6 | 0.00 | 0.00 | 0.00 | 63 | 1012.5 |
| 20260507005554 | 36 | 341 | 0.0 | 1.7 | 0.00 | 0.00 | 0.00 | 63 | 1012.5 |
| 20260507005057 | 36 | 5 | 0.0 | 1.7 | 0.00 | 0.00 | 0.00 | 61 | 1012.5 |
| 20260507004553 | 36 | 319 | 0.0 | 0.9 | 0.00 | 0.00 | 0.00 | 62 | 1012.4 |
| 20260507004052 | 36 | 9 | 0.0 | 0.9 | 0.00 | 0.00 | 0.00 | 61 | 1012.4 |
| 20260507003551 | 36 | 33 | 0.0 | 1.7 | 0.00 | 0.00 | 0.00 | 62 | 1012.4 |
| 20260507003050 | 36 | 22 | 0.0 | 2.6 | 0.00 | 0.00 | 0.00 | 62 | 1012.3 |
| 20260507002551 | 36 | 34 | 0.0 | 2.6 | 0.00 | 0.00 | 0.00 | 63 | 1012.3 |
| 20260507002051 | 35 | 53 | 0.0 | 1.7 | 0.00 | 0.00 | 0.00 | 66 | 1012.3 |
| 20260507001605 | 34 | 19 | 0.0 | 1.7 | 0.00 | 0.00 | 0.00 | 67 | 1012.3 |
| 20260507001048 | 34 | 19 | 0.0 | 0.0 | 0.00 | 0.00 | 0.00 | 68 | 1012.2 |
| 20260507000549 | 34 | 19 | 0.0 | 0.0 | 0.00 | 0.00 | 0.00 | 67 | 1012.1 |
| 20260507000056 | 34 | 13 | 0.0 | 0.0 | 0.00 | 0.00 | 0.00 | 68 | 1012.2 |
| 20260506235547 | 34 | 13 | 0.0 | 0.0 | 0.00 | 0.00 | 0.00 | 67 | 1012.2 |
| 20260506235048 | 34 | 13 | 0.0 | 0.0 | 0.00 | 0.00 | 0.00 | 68 | 1012.2 |
| 20260506234546 | 34 | 13 | 0.0 | 0.0 | 0.00 | 0.00 | 0.00 | 67 | 1012.1 |
| 20260506234045 | 35 | 13 | 0.0 | 0.0 | 0.00 | 0.00 | 0.00 | 68 | 1012.1 |
| 20260506233544 | 35 | 13 | 0.0 | 0.0 | 0.00 | 0.00 | 0.00 | 66 | 1012.2 |
| 20260506233043 | 35 | 13 | 0.0 | 0.0 | 0.00 | 0.00 | 0.00 | 65 | 1012.2 |
| 20260506232542 | 35 | 13 | 0.0 | 0.0 | 0.00 | 0.00 | 0.00 | 65 | 1012.2 |
| 20260506232141 | 36 | 13 | 0.0 | 0.0 | 0.00 | 0.00 | 0.00 | 65 | 1012.1 |
| 20260506231540 | 36 | 13 | 0.0 | 0.0 | 0.00 | 0.00 | 0.00 | 65 | 1012.0 |
| 20260506231039 | 36 | 13 | 0.0 | 0.0 | 0.00 | 0.00 | 0.00 | 64 | 1012.0 |
| 20260506230541 | 36 | 13 | 0.0 | 0.9 | 0.00 | 0.00 | 0.00 | 64 | 1011.9 |
| 20260506230037 | 36 | 13 | 0.0 | 0.0 | 0.00 | 0.00 | 0.00 | 63 | 1011.8 |
| 20260506225538 | 37 | 13 | 0.0 | 2.6 | 0.00 | 0.00 | 0.00 | 63 | 1011.8 |
| 20260506225037 | 36 | 36 | 0.0 | 0.0 | 0.00 | 0.00 | 0.00 | 64 | 1011.7 |
| 20260506224537 | 36 | 12 | 0.0 | 0.0 | 0.00 | 0.00 | 0.00 | 63 | 1011.7 |
| 20260506224034 | 36 | 22 | 0.0 | 0.0 | 0.00 | 0.00 | 0.00 | 63 | 1011.5 |
| 20260506223534 | 37 | 329 | 0.0 | 0.0 | 0.00 | 0.00 | 0.00 | 63 | 1011.6 |
| 20260506223035 | 36 | 320 | 0.0 | 0.0 | 0.00 | 0.00 | 0.00 | 63 | 1011.6 |
| 20260506222533 | 37 | 284 | 0.0 | 0.0 | 0.00 | 0.00 | 0.00 | 62 | 1011.6 |
| 20260506222032 | 37 | 283 | 0.0 | 0.0 | 0.00 | 0.00 | 0.00 | 62 | 1011.5 |
| 20260506221529 | 37 | 283 | 0.0 | 0.0 | 0.00 | 0.00 | 0.00 | 61 | 1011.5 |
| 20260506221028 | 38 | 283 | 0.0 | 0.0 | 0.00 | 0.00 | 0.00 | 60 | 1011.4 |
| 20260506220527 | 38 | 283 | 0.0 | 2.6 | 0.00 | 0.00 | 0.00 | 59 | 1011.4 |
| 20260506220026 | 38 | 360 | 0.0 | 2.6 | 0.00 | 0.00 | 0.00 | 58 | 1011.3 |
| 20260506215526 | 38 | 35 | 0.0 | 2.6 | 0.00 | 0.00 | 0.00 | 58 | 1011.3 |
| 20260506215026 | 38 | 335 | 0.0 | 2.6 | 0.00 | 0.00 | 0.00 | 57 | 1011.2 |
| 20260506214526 | 38 | 360 | 0.0 | 2.6 | 0.00 | 0.00 | 0.00 | 57 | 1011.3 |
| 20260506214024 | 38 | 27 | 0.0 | 0.0 | 0.00 | 0.00 | 0.00 | 57 | 1011.2 |
| 20260506213526 | 38 | 50 | 0.0 | 0.0 | 0.00 | 0.00 | 0.00 | 57 | 1011.1 |
| 20260506213025 | 38 | 38 | 0.0 | 0.9 | 0.00 | 0.00 | 0.00 | 57 | 1011.2 |
| 20260506212529 | 38 | 48 | 0.0 | 0.9 | 0.00 | 0.00 | 0.00 | 56 | 1011.1 |
| 20260506212024 | 39 | 48 | 0.0 | 0.9 | 0.00 | 0.00 | 0.00 | 55 | 1011.1 |
| 20260506211523 | 38 | 48 | 0.0 | 0.0 | 0.00 | 0.00 | 0.00 | 55 | 1011.1 |
| 20260506211023 | 38 | 48 | 0.0 | 0.0 | 0.00 | 0.00 | 0.00 | 55 | 1010.9 |
| 20260506210525 | 38 | 48 | 0.0 | 0.0 | 0.00 | 0.00 | 0.00 | 55 | 1011.0 |
| 20260506210024 | 39 | 48 | 0.0 | 0.0 | 0.00 | 0.00 | 0.00 | 54 | 1010.9 |
| 20260506205523 | 40 | 48 | 0.0 | 4.3 | 0.00 | 0.00 | 0.00 | 53 | 1010.9 |
| 20260506205023 | 40 | 48 | 0.0 | 4.3 | 0.00 | 0.00 | 0.00 | 52 | 1010.8 |
| 20260506204623 | 40 | 41 | 0.0 | 0.9 | 0.00 | 0.00 | 0.00 | 52 | 1010.8 |
| 20260506204022 | 40 | 31 | 0.0 | 0.9 | 0.00 | 0.00 | 0.00 | 52 | 1010.7 |
| 20260506203522 | 41 | 25 | 0.0 | 0.0 | 0.00 | 0.00 | 0.00 | 51 | 1010.7 |
| 20260506203145 | 42 | 10 | 0.0 | 0.0 | 0.00 | 0.00 | 0.00 | 49 | 1010.7 |
| 20260506202513 | 42 | 336 | 0.0 | 4.3 | 0.00 | 0.00 | 0.00 | 48 | 1010.6 |
| 20260506202013 | 42 | 315 | 0.0 | 0.0 | 0.00 | 0.00 | 0.00 | 48 | 1010.5 |
| 20260506201518 | 42 | 40 | 0.0 | 2.6 | 0.00 | 0.00 | 0.00 | 48 | 1010.6 |
| 20260506201012 | 42 | 15 | 0.0 | 2.6 | 0.00 | 0.00 | 0.00 | 47 | 1010.5 |
| 20260506200513 | 42 | 13 | 0.0 | 1.7 | 0.00 | 0.00 | 0.00 | 47 | 1010.5 |
| 20260506200013 | 42 | 32 | 0.0 | 0.0 | 0.00 | 0.00 | 0.00 | 47 | 1010.5 |
| 20260506195515 | 42 | 30 | 0.0 | 3.5 | 0.00 | 0.00 | 0.00 | 46 | 1010.4 |
| 20260506195011 | 42 | 11 | 0.0 | 3.5 | 0.00 | 0.00 | 0.00 | 46 | 1010.3 |
| 20260506194511 | 43 | 355 | 0.0 | 0.9 | 0.00 | 0.00 | 0.00 | 46 | 1010.3 |
| 20260506194010 | 43 | 5 | 0.0 | 0.0 | 0.00 | 0.00 | 0.00 | 45 | 1010.2 |
| 20260506193512 | 43 | 355 | 0.0 | 0.0 | 0.00 | 0.00 | 0.00 | 45 | 1010.2 |
| 20260506193011 | 44 | 355 | 0.0 | 0.0 | 0.00 | 0.00 | 0.00 | 44 | 1010.1 |
| 20260506192510 | 44 | 25 | 0.0 | 0.0 | 0.00 | 0.00 | 0.00 | 43 | 1010.0 |
| 20260506192010 | 45 | 34 | 0.0 | 0.0 | 0.00 | 0.00 | 0.00 | 42 | 1009.9 |
| 20260506191513 | 45 | 340 | 0.0 | 0.0 | 0.00 | 0.00 | 0.00 | 41 | 1009.9 |
| 20260506191009 | 46 | 34 | 0.0 | 3.5 | 0.00 | 0.00 | 0.00 | 40 | 1009.8 |
| 20260506190509 | 46 | 333 | 0.0 | 3.5 | 0.00 | 0.00 | 0.00 | 40 | 1009.8 |
| 20260506190009 | 46 | 329 | 0.0 | 0.0 | 0.00 | 0.00 | 0.00 | 39 | 1009.8 |
| 20260506185509 | 46 | 322 | 0.0 | 0.9 | 0.00 | 0.00 | 0.00 | 38 | 1009.7 |
| 20260506185009 | 47 | 328 | 0.0 | 5.2 | 0.00 | 0.00 | 0.00 | 38 | 1009.6 |
| 20260506184502 | 47 | 331 | 0.0 | 5.2 | 0.00 | 0.00 | 0.00 | 38 | 1009.6 |
| 20260506184103 | 47 | 337 | 0.0 | 4.3 | 0.00 | 0.00 | 0.00 | 37 | 1009.5 |
| 20260506183601 | 47 | 320 | 0.0 | 8.7 | 0.00 | 0.00 | 0.00 | 37 | 1009.5 |
| 20260506183112 | 48 | 344 | 0.0 | 8.7 | 0.00 | 0.00 | 0.00 | 37 | 1009.4 |
| 20260506182600 | 48 | 343 | 0.0 | 9.6 | 0.00 | 0.00 | 0.00 | 36 | 1009.4 |
| 20260506182100 | 48 | 332 | 0.0 | 9.6 | 0.00 | 0.00 | 0.00 | 35 | 1009.3 |
| 20260506181604 | 48 | 326 | 0.0 | 7.8 | 0.00 | 0.00 | 0.00 | 36 | 1009.3 |
| 20260506181059 | 48 | 328 | 0.9 | 7.8 | 0.00 | 0.00 | 0.00 | 35 | 1009.2 |
| 20260506180559 | 48 | 319 | 0.0 | 0.0 | 0.00 | 0.00 | 0.00 | 34 | 1009.2 |
| 20260506180059 | 48 | 317 | 0.0 | 0.0 | 0.00 | 0.00 | 0.00 | 34 | 1009.1 |
| 20260506175602 | 49 | 311 | 0.0 | 0.0 | 0.00 | 0.00 | 0.00 | 34 | 1009.0 |
| 20260506175058 | 49 | 247 | 0.0 | 0.0 | 0.00 | 0.00 | 0.00 | 33 | 1009.0 |
| 20260506174610 | 49 | 13 | 0.0 | 0.9 | 0.00 | 0.00 | 0.00 | 32 | 1009.0 |
| 20260506174101 | 49 | 290 | 0.0 | 0.9 | 0.00 | 0.00 | 0.00 | 32 | 1008.9 |
| 20260506173558 | 49 | 249 | 0.0 | 0.9 | 0.00 | 0.00 | 0.00 | 32 | 1008.9 |
| 20260506173058 | 50 | 268 | 0.0 | 0.0 | 0.00 | 0.00 | 0.00 | 31 | 1008.8 |
| 20260506172557 | 50 | 275 | 0.0 | 0.0 | 0.00 | 0.00 | 0.00 | 32 | 1008.7 |
| 20260506172057 | 50 | 318 | 0.0 | 0.0 | 0.00 | 0.00 | 0.00 | 31 | 1008.8 |
| 20260506171605 | 51 | 229 | 0.0 | 1.7 | 0.00 | 0.00 | 0.00 | 30 | 1008.7 |
| 20260506171157 | 51 | 245 | 0.0 | 1.7 | 0.00 | 0.00 | 0.00 | 30 | 1008.6 |
| 20260506170556 | 52 | 261 | 0.0 | 0.9 | 0.00 | 0.00 | 0.00 | 28 | 1008.6 |
| 20260506170100 | 53 | 283 | 0.0 | 0.0 | 0.00 | 0.00 | 0.00 | 29 | 1008.7 |
| 20260506165600 | 53 | 267 | 0.0 | 0.0 | 0.00 | 0.00 | 0.00 | 28 | 1008.7 |
| 20260506165056 | 52 | 288 | 0.0 | 0.0 | 0.00 | 0.00 | 0.00 | 27 | 1008.6 |
| 20260506164559 | 52 | 301 | 0.0 | 2.6 | 0.00 | 0.00 | 0.00 | 26 | 1008.6 |
| 20260506164055 | 52 | 313 | 0.0 | 2.6 | 0.00 | 0.00 | 0.00 | 28 | 1008.6 |
| 20260506163555 | 52 | 304 | 0.0 | 7.0 | 0.00 | 0.00 | 0.00 | 28 | 1008.6 |
| 20260506163116 | 53 | 332 | 0.0 | 7.0 | 0.00 | 0.00 | 0.00 | 28 | 1008.6 |
| 20260506162554 | 53 | 314 | 0.0 | 7.0 | 0.00 | 0.00 | 0.00 | 28 | 1008.5 |
| 20260506162054 | 53 | 258 | 0.0 | 7.0 | 0.00 | 0.00 | 0.00 | 28 | 1008.5 |
| 20260506161554 | 53 | 275 | 0.0 | 3.5 | 0.00 | 0.00 | 0.00 | 30 | 1008.5 |
| 20260506161053 | 53 | 340 | 0.0 | 3.5 | 0.00 | 0.00 | 0.00 | 28 | 1008.5 |
| 20260506160553 | 53 | 336 | 0.0 | 12.2 | 0.00 | 0.00 | 0.00 | 30 | 1008.5 |
| 20260506160053 | 53 | 286 | 0.0 | 12.2 | 0.00 | 0.00 | 0.00 | 30 | 1008.4 |
| 20260506155552 | 54 | 263 | 0.0 | 7.0 | 0.00 | 0.00 | 0.00 | 29 | 1008.5 |
| 20260506155053 | 53 | 325 | 0.0 | 7.0 | 0.00 | 0.00 | 0.00 | 31 | 1008.5 |
| 20260506154554 | 53 | 291 | 0.0 | 6.1 | 0.00 | 0.00 | 0.00 | 30 | 1008.3 |
| 20260506154055 | 53 | 303 | 0.0 | 7.8 | 0.00 | 0.00 | 0.00 | 31 | 1008.3 |
| 20260506153552 | 53 | 269 | 0.0 | 8.7 | 0.00 | 0.00 | 0.00 | 30 | 1008.3 |
| 20260506153057 | 53 | 347 | 0.0 | 8.7 | 0.00 | 0.00 | 0.00 | 29 | 1008.3 |
| 20260506152552 | 53 | 284 | 0.0 | 6.1 | 0.00 | 0.00 | 0.00 | 32 | 1008.3 |
| 20260506152050 | 53 | 277 | 0.0 | 4.3 | 0.00 | 0.00 | 0.00 | 29 | 1008.2 |
| 20260506151547 | 53 | 241 | 0.0 | 4.3 | 0.00 | 0.00 | 0.00 | 30 | 1008.2 |
| 20260506151047 | 54 | 320 | 0.0 | 2.6 | 0.00 | 0.00 | 0.00 | 30 | 1008.1 |
| 20260506150546 | 54 | 300 | 0.0 | 2.6 | 0.00 | 0.00 | 0.00 | 29 | 1008.2 |
| 20260506150045 | 54 | 291 | 0.0 | 9.6 | 0.00 | 0.00 | 0.00 | 29 | 1008.3 |
| 20260506145549 | 55 | 259 | 0.9 | 9.6 | 0.00 | 0.00 | 0.00 | 27 | 1008.3 |
| 20260506145044 | 55 | 294 | 0.0 | 4.3 | 0.00 | 0.00 | 0.00 | 29 | 1008.3 |
| 20260506144546 | 56 | 276 | 0.0 | 3.5 | 0.00 | 0.00 | 0.00 | 29 | 1008.4 |
| 20260506144042 | 56 | 261 | 0.0 | 3.5 | 0.00 | 0.00 | 0.00 | 28 | 1008.3 |
| 20260506143542 | 56 | 281 | 0.0 | 1.7 | 0.00 | 0.00 | 0.00 | 26 | 1008.4 |
| 20260506143042 | 56 | 246 | 0.0 | 1.7 | 0.00 | 0.00 | 0.00 | 25 | 1008.3 |
| 20260506142545 | 56 | 286 | 0.0 | 6.1 | 0.00 | 0.00 | 0.00 | 26 | 1008.3 |
| 20260506142040 | 56 | 265 | 0.0 | 6.1 | 0.00 | 0.00 | 0.00 | 25 | 1008.3 |
| 20260506141540 | 56 | 283 | 0.0 | 1.7 | 0.00 | 0.00 | 0.00 | 24 | 1008.2 |
| 20260506141039 | 57 | 308 | 0.0 | 6.1 | 0.00 | 0.00 | 0.00 | 26 | 1008.3 |
| 20260506140638 | 57 | 242 | 0.9 | 6.1 | 0.00 | 0.00 | 0.00 | 26 | 1008.2 |
| 20260506140037 | 57 | 210 | 0.0 | 2.6 | 0.00 | 0.00 | 0.00 | 26 | 1008.2 |
| 20260506135536 | 57 | 253 | 0.0 | 1.7 | 0.00 | 0.00 | 0.00 | 25 | 1008.4 |
| 20260506135034 | 56 | 231 | 0.0 | 0.9 | 0.00 | 0.00 | 0.00 | 28 | 1008.4 |
| 20260506134533 | 55 | 259 | 0.0 | 0.9 | 0.00 | 0.00 | 0.00 | 29 | 1008.4 |
| 20260506134032 | 54 | 329 | 0.0 | 3.5 | 0.00 | 0.00 | 0.00 | 28 | 1008.3 |
| 20260506133532 | 54 | 229 | 0.0 | 5.2 | 0.00 | 0.00 | 0.00 | 29 | 1008.4 |
| 20260506133033 | 54 | 5 | 0.0 | 11.3 | 0.00 | 0.00 | 0.00 | 27 | 1008.4 |
| 20260506132529 | 54 | 343 | 0.9 | 11.3 | 0.00 | 0.00 | 0.00 | 28 | 1008.4 |
| 20260506132031 | 53 | 276 | 0.0 | 2.6 | 0.00 | 0.00 | 0.00 | 27 | 1008.6 |
| 20260506131535 | 53 | 281 | 0.0 | 2.6 | 0.00 | 0.00 | 0.00 | 28 | 1008.6 |
| 20260506131028 | 53 | 267 | 0.0 | 2.6 | 0.00 | 0.00 | 0.00 | 27 | 1008.5 |
| 20260506130529 | 53 | 265 | 0.0 | 4.3 | 0.00 | 0.00 | 0.00 | 26 | 1008.4 |
| 20260506130026 | 53 | 344 | 0.0 | 4.3 | 0.00 | 0.00 | 0.00 | 30 | 1008.5 |
| 20260506125526 | 53 | 323 | 0.0 | 2.6 | 0.00 | 0.00 | 0.00 | 28 | 1008.5 |
| 20260506125025 | 54 | 271 | 0.0 | 0.9 | 0.00 | 0.00 | 0.00 | 30 | 1008.5 |
| 20260506124525 | 53 | 259 | 0.0 | 7.8 | 0.00 | 0.00 | 0.00 | 28 | 1008.5 |
| 20260506124026 | 53 | 321 | 0.0 | 7.8 | 0.00 | 0.00 | 0.00 | 28 | 1008.6 |
| 20260506123525 | 53 | 289 | 0.0 | 3.5 | 0.00 | 0.00 | 0.00 | 29 | 1008.6 |
| 20260506123025 | 53 | 355 | 0.0 | 7.0 | 0.00 | 0.00 | 0.00 | 28 | 1008.6 |
| 20260506122527 | 53 | 346 | 0.0 | 7.8 | 0.00 | 0.00 | 0.00 | 27 | 1008.6 |
| 20260506122023 | 53 | 327 | 0.0 | 7.8 | 0.00 | 0.00 | 0.00 | 30 | 1008.8 |
| 20260506121521 | 53 | 243 | 0.0 | 2.6 | 0.00 | 0.00 | 0.00 | 28 | 1008.8 |
| 20260506121019 | 53 | 269 | 0.0 | 5.2 | 0.00 | 0.00 | 0.00 | 27 | 1008.9 |
| 20260506120519 | 53 | 355 | 0.0 | 5.2 | 0.00 | 0.00 | 0.00 | 29 | 1008.9 |
| 20260506120019 | 53 | 350 | 0.0 | 4.3 | 0.00 | 0.00 | 0.00 | 29 | 1008.9 |
| 20260506115519 | 52 | 327 | 0.0 | 10.4 | 0.00 | 0.00 | 0.00 | 29 | 1008.9 |
| 20260506115016 | 52 | 324 | 0.0 | 0.0 | 0.00 | 0.00 | 0.00 | 29 | 1008.9 |
| 20260506114516 | 52 | 360 | 0.0 | 7.8 | 0.00 | 0.00 | 0.00 | 31 | 1008.9 |
| 20260506114014 | 51 | 5 | 0.9 | 7.8 | 0.00 | 0.00 | 0.00 | 28 | 1008.9 |
| 20260506113514 | 51 | 320 | 0.0 | 5.2 | 0.00 | 0.00 | 0.00 | 30 | 1009.0 |
| 20260506113013 | 51 | 355 | 0.0 | 1.7 | 0.00 | 0.00 | 0.00 | 30 | 1009.0 |
| 20260506112516 | 51 | 312 | 0.0 | 1.7 | 0.00 | 0.00 | 0.00 | 29 | 1009.0 |
| 20260506112011 | 51 | 351 | 0.0 | 7.8 | 0.00 | 0.00 | 0.00 | 32 | 1009.1 |
| 20260506111520 | 51 | 343 | 0.0 | 7.0 | 0.00 | 0.00 | 0.00 | 31 | 1009.2 |
| 20260506111009 | 51 | 124 | 0.0 | 7.0 | 0.00 | 0.00 | 0.00 | 32 | 1009.2 |
| 20260506110508 | 51 | 355 | 0.0 | 0.0 | 0.00 | 0.00 | 0.00 | 31 | 1009.3 |
| 20260506110010 | 50 | 65 | 0.0 | 0.0 | 0.00 | 0.00 | 0.00 | 30 | 1009.4 |
| 20260506105508 | 51 | 329 | 0.0 | 1.7 | 0.00 | 0.00 | 0.00 | 32 | 1009.4 |
| 20260506105011 | 51 | 355 | 0.0 | 1.7 | 0.00 | 0.00 | 0.00 | 30 | 1009.4 |
| 20260506104505 | 51 | 5 | 0.0 | 0.9 | 0.00 | 0.00 | 0.00 | 29 | 1009.4 |
| 20260506104007 | 50 | 92 | 0.0 | 0.9 | 0.00 | 0.00 | 0.00 | 33 | 1009.4 |
| 20260506103503 | 50 | 328 | 0.0 | 0.0 | 0.00 | 0.00 | 0.00 | 31 | 1009.4 |
| 20260506103003 | 50 | 340 | 0.0 | 3.5 | 0.00 | 0.00 | 0.00 | 34 | 1009.5 |
| 20260506102503 | 50 | 273 | 0.0 | 3.5 | 0.00 | 0.00 | 0.00 | 33 | 1009.6 |
| 20260506102101 | 50 | 16 | 0.0 | 0.0 | 0.00 | 0.00 | 0.00 | 33 | 1009.7 |
| 20260506101632 | 51 | 136 | 0.0 | 0.0 | 0.00 | 0.00 | 0.00 | 36 | 1009.7 |
| 20260506101100 | 51 | 312 | 0.0 | 0.9 | 0.00 | 0.00 | 0.00 | 32 | 1009.8 |
| 20260506100557 | 51 | 223 | 0.0 | 0.9 | 0.00 | 0.00 | 0.00 | 34 | 1009.8 |
| 20260506100058 | 50 | 277 | 0.0 | 0.0 | 0.00 | 0.00 | 0.00 | 36 | 1009.8 |
| 20260506095556 | 51 | 285 | 0.0 | 0.0 | 0.00 | 0.00 | 0.00 | 36 | 1009.9 |
| 20260506095055 | 50 | 82 | 0.0 | 0.0 | 0.00 | 0.00 | 0.00 | 40 | 1009.9 |
| 20260506094557 | 50 | 252 | 0.0 | 0.0 | 0.00 | 0.00 | 0.00 | 36 | 1009.9 |
| 20260506094051 | 49 | 218 | 0.0 | 3.5 | 0.00 | 0.00 | 0.00 | 37 | 1009.9 |